Regional Weather Roundup
Issued by NWS

Home | Current Version | Previous Version | Graphics & Text | Print | Product List | Glossary On
Versions: 1 2 3 4 5 6 7 8 9 10 11 12 13 14 15 16 17 18 19 20 21 22 23 24 25 26 27 28 29 30 31 32 33 34 35 36 37 38 39 40 41 42 43 44 45 46 47 48 49 50
000
ASUS45 KBOU 280207
RWRCO

WEATHER ROUNDUP FOR COLORADO
NATIONAL WEATHER SERVICE DENVER/BOULDER CO
800 PM MDT WED AUG 27 2014

NOTE: "FAIR" INDICATES FEW OR NO CLOUDS BELOW 12000 FEET WITH NO
SIGNIFICANT WEATHER AND/OR OBSTRUCTIONS TO VISIBILITY.

COZ001>005-013-030-031-280300-
...NORTHWEST COLORADO...

CITY           SKY/WX    TMP DP  RH WIND       PRES   REMARKS
CRAIG          LGT RAIN  53  51  93 SW10      30.28R
HAYDEN         CLOUDY    54  48  82 W3        30.29R
MEEKER         CLOUDY    54  50  86 NW5       30.30R
MOUNT WERNER   NOT AVBL
STEAMBOAT SPGS CLOUDY    52  49  89 CALM      30.30R
WALDEN         MOCLDY    46  41  81 CALM      30.33R
$$

COZ006>008-011-280300-
...WEST CENTRAL VALLEYS...

CITY           SKY/WX    TMP DP  RH WIND       PRES   REMARKS
GRAND JUNCTION LGT RAIN  59  54  83 N9        30.24R
MONTROSE       CLOUDY    61  46  57 SE13      30.30R
EAGLE          MOCLDY    57  46  67 W3        30.30R
RIFLE          LGT RAIN  59  54  83 E3        30.26R
DELTA          HVY RAIN  64  51  61 E3        30.26R
NUCLA          MOCLDY    55  48  76 E6        30.34R
$$

COZ017>023-064>068-280300-
...SOUTHWEST COLORADO...

CITY           SKY/WX    TMP DP  RH WIND       PRES   REMARKS
DURANGO        NOT AVBL
CORTEZ         NOT AVBL
PAGOSA SPRINGS MOCLDY    58  38  47 W9        30.38R
TELLURIDE      CLOUDY    45  43  93 E3        30.47F
WOLF CREEK PAS CLOUDY    37  36  93 SW25G41   30.55R
$$

COZ009-010-012-014-032>034-037-058>063-280300-
...CENTRAL COLORADO...

CITY           SKY/WX    TMP DP  RH WIND       PRES   REMARKS
ASPEN          MOCLDY    52  44  74 S3        30.34R
BUENA VISTA    MOCLDY    55  36  48 W18       30.32R
COPPER MTN     MOCLDY    41  34  75 S7        30.54S
BERTHOUD PASS  FAIR      32  32 100 W13G24    30.55R WCI  22
COTTONWOOD PAS MOCLDY    52  32  46 W13G28    30.40F
GUNNISON       CLOUDY    54  37  54 NW5       30.39R
KREMMLING      PTCLDY    54  36  50 S3        30.32R
LEADVILLE      MOCLDY    46  35  65 N7        30.42F
MONARCH PASS   MOCLDY    36  32  87 SW31G37   30.64F
SALIDA         MOCLDY    59  38  46 SW18G26   30.37R
SUNLIGHT       LGT RAIN  43  41  93 CALM      30.49S
WILKERSON PASS NOT AVBL
$$

COZ069>075-280300-
...SAN LUIS VALLEY/SANGRE DE CRISTO MOUNTAINS...

CITY           SKY/WX    TMP DP  RH WIND       PRES   REMARKS
ALAMOSA        CLOUDY    61  39  44 W16       30.30R
LA VETA PASS   NOT AVBL
SAGUACHE       MOCLDY    50  43  76 NW5       30.37R
$$

COZ035-036-038>040-280300-
...NORTHERN COLORADO FRONT RANGE...

CITY           SKY/WX    TMP DP  RH WIND       PRES   REMARKS
DENVER INTL AP MOCLDY    66  56  70 N17       30.13R
DMNS CITY PARK   N/A     66  47  51 W10G21    30.15R
AURORA         NOT AVBL
FRONT RANGE AP NOT AVBL
ERIE MUNI ARPT MOCLDY    62  57  83 N5        30.11F
BOULDER MUN AP CLOUDY    63  57  82 SW6       30.14S
CENTENNIAL     MOCLDY    66  52  60 N12       30.17R
BROOMFIELD     LGT RAIN  61  54  77 NW9       30.15F
FORT COLLINS   CLOUDY    64  57  77 E6        30.14R
LONGMONT       CLOUDY    66  58  74 CALM      30.13F
$$

COZ041-046-047-076>085-087-088-280300-
...PIKES PEAK/PALMER DIVIDE AND SOUTHERN FOOTHILLS...

CITY           SKY/WX    TMP DP  RH WIND       PRES   REMARKS
COLO. SPRINGS  MOCLDY    72  48  42 N21       30.13R
A. F. ACADEMY  PTCLDY    65  41  40 NW17G26   30.17R
ELLICOTT         N/A     66  55  67 CALM      30.11S
FALCON         PTCLDY    64  52  64 N10G16    30.19R
FORT CARSON    PTCLDY    70  46  41 NW10      30.10R
LIMON          MOCLDY    65  48  54 N9        30.08S
MONUMENT HILL  PTCLDY    55  52  88 W10       30.22R
TRINIDAD       PTCLDY    73  44  35 SW16      30.11R
$$

COZ042>045-048>051-090-091-280300-
...NORTHEAST COLORADO...

CITY           SKY/WX    TMP DP  RH WIND       PRES   REMARKS
GREELEY ARPT   CLOUDY    64  48  55 N6        30.11R
AKRON          TSTM      58  56  93 N18G24    30.09R
BURLINGTON     CLEAR     71  63  75 SE8       30.01R
WRAY             N/A     74  64  73 E23       29.98S
STERLING       MOCLDY    72  63  73 N7        30.04R
HOLYOKE        CLOUDY    72  66  83 E20G26    29.99S
FORT MORGAN    MOCLDY    63  57  81 N9        30.07R
$$

COZ086-089-092>099-280300-
...SOUTHEAST COLORADO...

CITY           SKY/WX    TMP DP  RH WIND       PRES   REMARKS
PUEBLO         PTCLDY    79  43  27 NW18G28   30.01R
LA JUNTA       MOCLDY    69  60  73 E15       29.97F
LAMAR          MOCLDY    79  59  50 S13       29.94R
SPRINGFIELD      N/A     71  59  65 S12       30.04R
$$


USA.gov is the U.S. government's official web portal to all federal, state and local government web resources and services.